Torna al catalogo

ONEWEB-0403

AttivoComunicazioniPO
NORAD 50483·PAYLOAD·🇬🇧 United Kingdom

Lanciato Dec 27, 2021 da Baikonur Cosmodrome

Loading…

Prossimi Passaggi (prossime 24 ore)

TLE

AggiornatoSource: CelesTrak SupGP

Epoca: Sep 14, 2026, 19:30 UTC

1 50483C 21132Q   26257.81265463 -.00014984  00000+0 -38048-1 0  2574
2 50483  87.9162 317.6516 0002057 103.0497 296.3935 13.18709332    17

Traccia ONEWEB-0403 in tempo reale con AllMySat

Download on the App Store